Time,TemperatureF,DewpointF,PressureIn,WindDirection,WindDirectionDegrees,WindSpeedMPH,WindSpeedGustMPH,Humidity,HourlyPrecipIn,Conditions,Clouds,dailyrainin,SolarRadiationWatts/m^2,SoftwareType,DateUTC
2013-03-03 00:01:00,47.0,4.0,-100.00,West,266,5.0,9.0,17,0.00,,,0.00,0.000000,,2013-03-03 07:01:00,
2013-03-03 00:11:00,47.0,4.0,-100.00,West,266,5.0,9.0,17,0.00,,,0.00,0.000000,,2013-03-03 07:11:00,
2013-03-03 00:21:00,47.0,4.0,-100.00,West,266,5.0,9.0,17,0.00,,,0.00,0.000000,,2013-03-03 07:21:00,
2013-03-03 00:31:00,47.0,4.0,-100.00,West,266,5.0,9.0,17,0.00,,,0.00,0.000000,,2013-03-03 07:31:00,
2013-03-03 00:52:00,47.0,4.0,-100.00,West,269,5.0,9.0,17,0.00,,,0.00,0.000000,,2013-03-03 07:52:00,
2013-03-03 01:01:00,47.0,4.0,-100.00,West,269,5.0,9.0,17,0.00,,,0.00,0.000000,,2013-03-03 08:01:00,
2013-03-03 01:11:00,47.0,4.0,-100.00,West,269,5.0,9.0,17,0.00,,,0.00,0.000000,,2013-03-03 08:11:00,
2013-03-03 01:21:00,47.0,4.0,-100.00,West,269,5.0,9.0,17,0.00,,,0.00,0.000000,,2013-03-03 08:21:00,
2013-03-03 01:31:00,47.0,4.0,-100.00,West,269,5.0,9.0,17,0.00,,,0.00,0.000000,,2013-03-03 08:31:00,
2013-03-03 01:54:00,47.0,4.0,-100.00,West,262,5.0,7.0,17,0.00,,,0.00,0.000000,,2013-03-03 08:54:00,
2013-03-03 02:01:00,47.0,4.0,-100.00,West,262,5.0,7.0,17,0.00,,,0.00,0.000000,,2013-03-03 09:01:00,
2013-03-03 02:11:00,47.0,4.0,-100.00,West,262,5.0,7.0,17,0.00,,,0.00,0.000000,,2013-03-03 09:11:00,
2013-03-03 02:21:00,47.0,4.0,-100.00,West,262,5.0,7.0,17,0.00,,,0.00,0.000000,,2013-03-03 09:21:00,
2013-03-03 02:31:00,47.0,4.0,-100.00,West,262,5.0,7.0,17,0.00,,,0.00,0.000000,,2013-03-03 09:31:00,
2013-03-03 02:52:00,46.0,9.0,-100.00,WSW,256,6.0,9.0,22,0.00,,,0.00,0.000000,,2013-03-03 09:52:00,
2013-03-03 03:01:00,46.0,9.0,-100.00,WSW,256,6.0,9.0,22,0.00,,,0.00,0.000000,,2013-03-03 10:01:00,
2013-03-03 03:11:00,46.0,9.0,-100.00,WSW,256,6.0,9.0,22,0.00,,,0.00,0.000000,,2013-03-03 10:11:00,
2013-03-03 03:21:00,46.0,9.0,-100.00,WSW,256,6.0,9.0,22,0.00,,,0.00,0.000000,,2013-03-03 10:21:00,
2013-03-03 03:31:00,46.0,9.0,-100.00,WSW,256,6.0,9.0,22,0.00,,,0.00,0.000000,,2013-03-03 10:31:00,
2013-03-03 03:52:00,45.0,11.0,-100.00,WSW,256,6.0,9.0,25,0.00,,,0.00,0.000000,,2013-03-03 10:52:00,
2013-03-03 04:01:00,45.0,11.0,-100.00,WSW,256,6.0,9.0,25,0.00,,,0.00,0.000000,,2013-03-03 11:01:00,
2013-03-03 04:11:00,45.0,11.0,-100.00,WSW,256,6.0,9.0,25,0.00,,,0.00,0.000000,,2013-03-03 11:11:00,
2013-03-03 04:21:00,45.0,11.0,-100.00,WSW,256,6.0,9.0,25,0.00,,,0.00,0.000000,,2013-03-03 11:21:00,
2013-03-03 04:31:00,45.0,11.0,-100.00,WSW,256,6.0,9.0,25,0.00,,,0.00,0.000000,,2013-03-03 11:31:00,
2013-03-03 04:52:00,45.0,7.0,-100.00,WSW,253,7.0,10.0,21,0.00,,,0.00,0.000000,,2013-03-03 11:52:00,
2013-03-03 05:01:00,45.0,7.0,-100.00,WSW,253,7.0,10.0,21,0.00,,,0.00,0.000000,,2013-03-03 12:01:00,
2013-03-03 05:11:00,45.0,7.0,-100.00,WSW,253,7.0,10.0,21,0.00,,,0.00,0.000000,,2013-03-03 12:11:00,
2013-03-03 05:21:00,45.0,7.0,-100.00,WSW,253,7.0,10.0,21,0.00,,,0.00,0.000000,,2013-03-03 12:21:00,
2013-03-03 05:31:00,45.0,7.0,-100.00,WSW,253,7.0,10.0,21,0.00,,,0.00,0.000000,,2013-03-03 12:31:00,
2013-03-03 06:01:00,45.0,0.0,-100.00,WSW,250,8.0,13.0,15,0.00,,,0.00,0.000000,,2013-03-03 13:01:00,
2013-03-03 06:11:00,45.0,0.0,-100.00,WSW,250,8.0,13.0,15,0.00,,,0.00,0.000000,,2013-03-03 13:11:00,
2013-03-03 06:21:00,45.0,0.0,-100.00,WSW,250,8.0,13.0,15,0.00,,,0.00,0.000000,,2013-03-03 13:21:00,
2013-03-03 06:31:00,45.0,0.0,-100.00,WSW,250,8.0,13.0,15,0.00,,,0.00,0.000000,,2013-03-03 13:31:00,
2013-03-03 07:01:00,44.0,-2.0,-100.00,West,259,7.0,14.0,14,0.00,,,0.00,0.000000,,2013-03-03 14:01:00,
2013-03-03 07:11:00,44.0,-2.0,-100.00,West,259,7.0,14.0,14,0.00,,,0.00,0.000000,,2013-03-03 14:11:00,
2013-03-03 07:21:00,44.0,-2.0,-100.00,West,259,7.0,14.0,14,0.00,,,0.00,0.000000,,2013-03-03 14:21:00,
2013-03-03 07:31:00,44.0,-2.0,-100.00,West,259,7.0,14.0,14,0.00,,,0.00,0.000000,,2013-03-03 14:31:00,
2013-03-03 08:01:00,47.0,-7.0,-100.00,WSW,258,5.0,9.0,10,0.00,,,0.00,51.000000,,2013-03-03 15:01:00,
2013-03-03 08:52:00,57.0,5.0,-100.00,WSW,246,6.0,9.0,12,0.00,,,0.00,337.000000,,2013-03-03 15:52:00,
2013-03-03 09:01:00,57.0,5.0,-100.00,WSW,246,6.0,9.0,12,0.00,,,0.00,337.000000,,2013-03-03 16:01:00,
2013-03-03 09:12:00,57.0,5.0,-100.00,WSW,246,6.0,9.0,12,0.00,,,0.00,337.000000,,2013-03-03 16:12:00,
2013-03-03 09:21:00,57.0,5.0,-100.00,WSW,246,6.0,9.0,12,0.00,,,0.00,337.000000,,2013-03-03 16:21:00,
2013-03-03 09:31:00,57.0,5.0,-100.00,WSW,246,6.0,9.0,12,0.00,,,0.00,337.000000,,2013-03-03 16:31:00,
2013-03-03 09:52:00,57.0,7.0,-100.00,WSW,239,6.0,11.0,13,0.00,,,0.00,589.000000,,2013-03-03 16:52:00,
2013-03-03 10:01:00,57.0,7.0,-100.00,WSW,239,6.0,11.0,13,0.00,,,0.00,589.000000,,2013-03-03 17:01:00,
2013-03-03 10:11:00,57.0,7.0,-100.00,WSW,239,6.0,11.0,13,0.00,,,0.00,589.000000,,2013-03-03 17:11:00,
2013-03-03 10:22:00,57.0,7.0,-100.00,WSW,239,6.0,11.0,13,0.00,,,0.00,589.000000,,2013-03-03 17:22:00,
2013-03-03 10:32:00,57.0,7.0,-100.00,WSW,239,6.0,11.0,13,0.00,,,0.00,589.000000,,2013-03-03 17:32:00,
2013-03-03 10:52:00,62.0,14.0,-100.00,SW,234,5.0,11.0,15,0.00,,,0.00,864.000000,,2013-03-03 17:52:00,
2013-03-03 11:01:00,62.0,14.0,-100.00,SW,234,5.0,11.0,15,0.00,,,0.00,864.000000,,2013-03-03 18:01:00,
2013-03-03 11:11:00,62.0,14.0,-100.00,SW,234,5.0,11.0,15,0.00,,,0.00,864.000000,,2013-03-03 18:11:00,
2013-03-03 11:21:00,62.0,14.0,-100.00,SW,234,5.0,11.0,15,0.00,,,0.00,864.000000,,2013-03-03 18:21:00,
2013-03-03 11:31:00,62.0,14.0,-100.00,SW,234,5.0,11.0,15,0.00,,,0.00,864.000000,,2013-03-03 18:31:00,
2013-03-03 11:52:00,61.0,14.0,-100.00,SW,233,7.0,11.0,16,0.00,,,0.00,995.000000,,2013-03-03 18:52:00,
2013-03-03 12:01:00,61.0,14.0,-100.00,SW,233,7.0,11.0,16,0.00,,,0.00,995.000000,,2013-03-03 19:01:00,
2013-03-03 12:11:00,61.0,14.0,-100.00,SW,233,7.0,11.0,16,0.00,,,0.00,995.000000,,2013-03-03 19:11:00,
2013-03-03 12:21:00,61.0,14.0,-100.00,SW,233,7.0,11.0,16,0.00,,,0.00,995.000000,,2013-03-03 19:21:00,
2013-03-03 12:31:00,61.0,14.0,-100.00,SW,233,7.0,11.0,16,0.00,,,0.00,995.000000,,2013-03-03 19:31:00,
2013-03-03 13:01:00,63.0,19.0,-100.00,SW,232,6.0,11.0,18,0.00,,,0.00,1122.000000,,2013-03-03 20:01:00,
2013-03-03 13:11:00,63.0,19.0,-100.00,SW,232,6.0,11.0,18,0.00,,,0.00,1122.000000,,2013-03-03 20:11:00,
2013-03-03 13:21:00,63.0,19.0,-100.00,SW,232,6.0,11.0,18,0.00,,,0.00,1122.000000,,2013-03-03 20:21:00,
2013-03-03 13:32:00,63.0,19.0,-100.00,SW,232,6.0,11.0,18,0.00,,,0.00,1122.000000,,2013-03-03 20:32:00,
2013-03-03 13:53:00,60.0,11.0,-100.00,SW,218,4.0,11.0,14,0.00,,,0.00,725.000000,,2013-03-03 20:53:00,
2013-03-03 14:01:00,60.0,11.0,-100.00,SW,218,4.0,11.0,14,0.00,,,0.00,725.000000,,2013-03-03 21:01:00,
2013-03-03 14:11:00,60.0,11.0,-100.00,SW,218,4.0,11.0,14,0.00,,,0.00,725.000000,,2013-03-03 21:11:00,
2013-03-03 14:21:00,60.0,11.0,-100.00,SW,218,4.0,11.0,14,0.00,,,0.00,725.000000,,2013-03-03 21:21:00,
2013-03-03 14:31:00,60.0,11.0,-100.00,SW,218,4.0,11.0,14,0.00,,,0.00,725.000000,,2013-03-03 21:31:00,
2013-03-03 14:52:00,59.0,18.0,-100.00,WSW,238,9.0,16.0,20,0.00,,,0.00,749.000000,,2013-03-03 21:52:00,
2013-03-03 15:01:00,59.0,18.0,-100.00,WSW,238,9.0,16.0,20,0.00,,,0.00,749.000000,,2013-03-03 22:01:00,
2013-03-03 15:11:00,59.0,18.0,-100.00,WSW,238,9.0,16.0,20,0.00,,,0.00,749.000000,,2013-03-03 22:11:00,
2013-03-03 15:21:00,59.0,18.0,-100.00,WSW,238,9.0,16.0,20,0.00,,,0.00,749.000000,,2013-03-03 22:21:00,
2013-03-03 15:31:00,59.0,18.0,-100.00,WSW,238,9.0,16.0,20,0.00,,,0.00,749.000000,,2013-03-03 22:31:00,
2013-03-03 16:01:00,58.0,17.0,-100.00,WSW,240,6.0,14.0,20,0.00,,,0.00,525.000000,,2013-03-03 23:01:00,
2013-03-03 16:11:00,58.0,17.0,-100.00,WSW,240,6.0,14.0,20,0.00,,,0.00,525.000000,,2013-03-03 23:11:00,
2013-03-03 16:21:00,58.0,17.0,-100.00,WSW,240,6.0,14.0,20,0.00,,,0.00,525.000000,,2013-03-03 23:21:00,
2013-03-03 16:31:00,58.0,17.0,-100.00,WSW,240,6.0,14.0,20,0.00,,,0.00,525.000000,,2013-03-03 23:31:00,
2013-03-03 16:52:00,51.0,16.0,-100.00,SW,229,4.0,12.0,24,0.00,,,0.00,242.000000,,2013-03-03 23:52:00,
2013-03-03 17:01:00,51.0,16.0,-100.00,SW,229,4.0,12.0,24,0.00,,,0.00,242.000000,,2013-03-04 00:01:00,
2013-03-03 17:11:00,51.0,16.0,-100.00,SW,229,4.0,12.0,24,0.00,,,0.00,242.000000,,2013-03-04 00:11:00,
2013-03-03 17:21:00,51.0,16.0,-100.00,SW,229,4.0,12.0,24,0.00,,,0.00,242.000000,,2013-03-04 00:21:00,
2013-03-03 17:32:00,51.0,16.0,-100.00,SW,229,4.0,12.0,24,0.00,,,0.00,242.000000,,2013-03-04 00:32:00,
2013-03-03 18:01:00,49.0,16.0,-100.00,WSW,246,9.0,14.0,27,0.00,,,0.00,115.000000,,2013-03-04 01:01:00,
2013-03-03 18:11:00,49.0,16.0,-100.00,WSW,246,9.0,14.0,27,0.00,,,0.00,115.000000,,2013-03-04 01:11:00,
2013-03-03 18:21:00,49.0,16.0,-100.00,WSW,246,9.0,14.0,27,0.00,,,0.00,115.000000,,2013-03-04 01:21:00,
2013-03-03 18:31:00,49.0,16.0,-100.00,WSW,246,9.0,14.0,27,0.00,,,0.00,115.000000,,2013-03-04 01:31:00,
2013-03-03 18:52:00,46.0,11.0,-100.00,WSW,245,11.0,19.0,24,0.00,,,0.00,15.000000,,2013-03-04 01:52:00,
2013-03-03 19:01:00,46.0,11.0,-100.00,WSW,245,11.0,19.0,24,0.00,,,0.00,15.000000,,2013-03-04 02:01:00,
2013-03-03 19:11:00,46.0,11.0,-100.00,WSW,245,11.0,19.0,24,0.00,,,0.00,15.000000,,2013-03-04 02:11:00,
2013-03-03 19:22:00,46.0,11.0,-100.00,WSW,245,11.0,19.0,24,0.00,,,0.00,15.000000,,2013-03-04 02:22:00,
2013-03-03 19:31:00,46.0,11.0,-100.00,WSW,245,11.0,19.0,24,0.00,,,0.00,15.000000,,2013-03-04 02:31:00,
2013-03-03 19:52:00,48.0,11.0,-100.00,WSW,243,12.0,24.0,22,0.00,,,0.00,0.000000,,2013-03-04 02:52:00,
2013-03-03 20:01:00,48.0,11.0,-100.00,WSW,243,12.0,24.0,22,0.00,,,0.00,0.000000,,2013-03-04 03:01:00,
2013-03-03 20:11:00,48.0,11.0,-100.00,WSW,243,12.0,24.0,22,0.00,,,0.00,0.000000,,2013-03-04 03:11:00,
2013-03-03 20:21:00,48.0,11.0,-100.00,WSW,243,12.0,24.0,22,0.00,,,0.00,0.000000,,2013-03-04 03:21:00,
2013-03-03 20:31:00,48.0,11.0,-100.00,WSW,243,12.0,24.0,22,0.00,,,0.00,0.000000,,2013-03-04 03:31:00,
2013-03-03 20:52:00,47.0,22.0,-100.00,WSW,243,19.0,36.0,37,0.00,,,0.00,0.000000,,2013-03-04 03:52:00,
2013-03-03 21:01:00,47.0,22.0,-100.00,WSW,243,19.0,36.0,37,0.00,,,0.00,0.000000,,2013-03-04 04:01:00,
2013-03-03 21:11:00,47.0,22.0,-100.00,WSW,243,19.0,36.0,37,0.00,,,0.00,0.000000,,2013-03-04 04:11:00,
2013-03-03 21:22:00,47.0,22.0,-100.00,WSW,243,19.0,36.0,37,0.00,,,0.00,0.000000,,2013-03-04 04:22:00,
2013-03-03 21:31:00,47.0,22.0,-100.00,WSW,243,19.0,36.0,37,0.00,,,0.00,0.000000,,2013-03-04 04:31:00,
2013-03-03 21:52:00,47.0,19.0,-100.00,WSW,240,12.0,31.0,33,0.00,,,0.00,0.000000,,2013-03-04 04:52:00,
2013-03-03 22:01:00,47.0,19.0,-100.00,WSW,240,12.0,31.0,33,0.00,,,0.00,0.000000,,2013-03-04 05:01:00,
2013-03-03 22:11:00,47.0,19.0,-100.00,WSW,240,12.0,31.0,33,0.00,,,0.00,0.000000,,2013-03-04 05:11:00,
2013-03-03 22:22:00,47.0,19.0,-100.00,WSW,240,12.0,31.0,33,0.00,,,0.00,0.000000,,2013-03-04 05:22:00,
2013-03-03 22:31:00,47.0,19.0,-100.00,WSW,240,12.0,31.0,33,0.00,,,0.00,0.000000,,2013-03-04 05:31:00,
2013-03-03 23:01:00,47.0,16.0,-100.00,WSW,244,11.0,25.0,29,0.00,,,0.00,0.000000,,2013-03-04 06:01:00,
2013-03-03 23:11:00,47.0,16.0,-100.00,WSW,244,11.0,25.0,29,0.00,,,0.00,0.000000,,2013-03-04 06:11:00,
2013-03-03 23:21:00,47.0,16.0,-100.00,WSW,244,11.0,25.0,29,0.00,,,0.00,0.000000,,2013-03-04 06:21:00,
2013-03-03 23:31:00,47.0,16.0,-100.00,WSW,244,11.0,25.0,29,0.00,,,0.00,0.000000,,2013-03-04 06:31:00,